• In Russia
  • List of Countries
  • For 7 days
  • Water Temperature
  • Satellite Maps
  • Weather Map
  • Weather Widgets
  • user-avatar
    Login

    Hourly Weather Biatris

    Today, 21 October, Sunday

    Time Temperature Precipitation Wind Pressure Humidity
    00:00 +21°C° 0.1 mm 4 mps 656 mmHg 70%
    01:00 +20°C° 0.1 mm 4 mps 656 mmHg 72%
    02:00 +19°C° 0.1 mm 4 mps 656 mmHg 73%
    03:00 +19°C° 0 mm 4 mps 656 mmHg 74%
    04:00 +17°C° 0 mm 5 mps 656 mmHg 75%
    05:00 +17°C° 0 mm 5 mps 656 mmHg 76%
    06:00 +19°C° 0 mm 5 mps 657 mmHg 71%
    07:00 +19°C° 0 mm 5 mps 657 mmHg 66%
    08:00 +20°C° 0 mm 6 mps 658 mmHg 61%
    09:00 +22°C° 0 mm 6 mps 658 mmHg 55%
    10:00 +23°C° 0 mm 6 mps 658 mmHg 49%
    11:00 +26°C° 0 mm 6 mps 658 mmHg 42%
    12:00 +27°C° 0 mm 5 mps 658 mmHg 39%
    13:00 +27°C° 0 mm 5 mps 658 mmHg 35%
    14:00 +28°C° 0 mm 5 mps 658 mmHg 32%
    15:00 +27°C° 0 mm 5 mps 657 mmHg 34%
    16:00 +26°C° 0 mm 5 mps 657 mmHg 37%
    17:00 +24°C° 0 mm 6 mps 657 mmHg 39%
    18:00 +22°C° 0 mm 6 mps 657 mmHg 45%
    19:00 +20°C° 0 mm 6 mps 657 mmHg 51%
    20:00 +17°C° 0 mm 6 mps 657 mmHg 56%
    21:00 +17°C° 0 mm 6 mps 657 mmHg 59%
    22:00 +16°C° 0 mm 6 mps 657 mmHg 61%
    23:00 +16°C° 0 mm 6 mps 658 mmHg 63%

    Tomorrow, 22 October, Monday

    Time Temperature Precipitation Wind Pressure Humidity
    00:00 +15°C° 0 mm 6 mps 657 mmHg 64%
    01:00 +14°C° 0 mm 5 mps 657 mmHg 65%
    02:00 +14°C° 0 mm 5 mps 656 mmHg 66%
    03:00 +13°C° 0 mm 5 mps 656 mmHg 69%
    04:00 +13°C° 0 mm 4 mps 656 mmHg 71%
    05:00 +12°C° 0 mm 4 mps 656 mmHg 73%
    06:00 +13°C° 0 mm 5 mps 657 mmHg 69%
    07:00 +14°C° 0 mm 5 mps 658 mmHg 65%
    08:00 +14°C° 0 mm 6 mps 659 mmHg 61%
    09:00 +17°C° 0 mm 5 mps 659 mmHg 51%
    10:00 +20°C° 0 mm 5 mps 659 mmHg 41%
    11:00 +23°C° 0 mm 5 mps 659 mmHg 31%
    12:00 +25°C° 0 mm 5 mps 659 mmHg 28%
    13:00 +26°C° 0 mm 5 mps 658 mmHg 24%
    14:00 +27°C° 0 mm 5 mps 658 mmHg 21%
    15:00 +27°C° 0 mm 5 mps 657 mmHg 22%
    16:00 +26°C° 0 mm 5 mps 657 mmHg 22%
    17:00 +25°C° 0 mm 5 mps 657 mmHg 22%
    18:00 +22°C° 0 mm 5 mps 657 mmHg 25%
    19:00 +20°C° 0 mm 5 mps 657 mmHg 28%
    20:00 +18°C° 0 mm 4 mps 658 mmHg 31%
    21:00 +17°C° 0 mm 4 mps 658 mmHg 34%
    22:00 +15°C° 0 mm 4 mps 658 mmHg 37%
    23:00 +14°C° 0 mm 4 mps 658 mmHg 40%

    Day after tomorrow, 23 October, Tuesday

    Time Temperature Precipitation Wind Pressure Humidity
    00:00 +14°C° 0 mm 4 mps 658 mmHg 44%
    01:00 +13°C° 0 mm 4 mps 657 mmHg 48%
    02:00 +12°C° 0 mm 3 mps 657 mmHg 52%
    03:00 +12°C° 0 mm 3 mps 657 mmHg 56%
    04:00 +11°C° 0 mm 3 mps 656 mmHg 61%
    05:00 +11°C° 0 mm 3 mps 656 mmHg 66%
    06:00 +12°C° 0 mm 3 mps 657 mmHg 61%
    07:00 +14°C° 0 mm 4 mps 658 mmHg 55%
    08:00 +17°C° 0 mm 4 mps 659 mmHg 50%
    09:00 +19°C° 0 mm 4 mps 659 mmHg 43%
    10:00 +22°C° 0 mm 4 mps 660 mmHg 35%
    11:00 +25°C° 0 mm 4 mps 660 mmHg 27%
    12:00 +26°C° 0 mm 4 mps 659 mmHg 25%
    13:00 +27°C° 0 mm 4 mps 659 mmHg 23%
    14:00 +28°C° 0 mm 4 mps 658 mmHg 21%
    15:00 +27°C° 0 mm 4 mps 658 mmHg 22%
    16:00 +26°C° 0 mm 4 mps 657 mmHg 23%
    17:00 +26°C° 0 mm 4 mps 657 mmHg 24%
    18:00 +23°C° 0 mm 4 mps 657 mmHg 28%
    19:00 +21°C° 0 mm 3 mps 657 mmHg 32%
    20:00 +20°C° 0 mm 3 mps 658 mmHg 36%
    21:00 +19°C° 0 mm 3 mps 658 mmHg 41%
    22:00 +18°C° 0 mm 3 mps 657 mmHg 45%
    23:00 +17°C° 0 mm 2 mps 657 mmHg 50%

    24 October, Wednesday

    Time Temperature Precipitation Wind Pressure Humidity
    00:00 +16°C° 0 mm 2 mps 657 mmHg 53%
    01:00 +16°C° 0 mm 2 mps 656 mmHg 57%
    02:00 +15°C° 0 mm 2 mps 656 mmHg 60%
    03:00 +15°C° 0 mm 2 mps 656 mmHg 63%
    04:00 +14°C° 0 mm 2 mps 655 mmHg 66%
    05:00 +13°C° 0 mm 2 mps 655 mmHg 70%
    06:00 +15°C° 0 mm 2 mps 656 mmHg 62%
    07:00 +17°C° 0 mm 3 mps 657 mmHg 55%
    08:00 +18°C° 0 mm 3 mps 658 mmHg 48%
    09:00 +21°C° 0 mm 3 mps 658 mmHg 39%
    10:00 +25°C° 0 mm 3 mps 658 mmHg 30%
    11:00 +27°C° 0 mm 3 mps 659 mmHg 21%
    12:00 +28°C° 0 mm 2 mps 658 mmHg 19%
    13:00 +29°C° 0 mm 2 mps 658 mmHg 17%
    14:00 +30°C° 0 mm 2 mps 657 mmHg 15%
    15:00 +29°C° 0 mm 2 mps 656 mmHg 17%
    16:00 +28°C° 0 mm 3 mps 656 mmHg 19%
    17:00 +27°C° 0 mm 3 mps 655 mmHg 20%
    18:00 +25°C° 0 mm 3 mps 656 mmHg 24%
    19:00 +24°C° 0 mm 3 mps 656 mmHg 27%
    20:00 +21°C° 0 mm 2 mps 656 mmHg 31%
    21:00 +21°C° 0 mm 2 mps 656 mmHg 34%
    22:00 +20°C° 0 mm 2 mps 656 mmHg 37%
    23:00 +19°C° 0 mm 2 mps 656 mmHg 41%

    25 October, Thursday

    Time Temperature Precipitation Wind Pressure Humidity
    00:00 +19°C° 0 mm 2 mps 656 mmHg 44%
    01:00 +18°C° 0 mm 2 mps 655 mmHg 47%
    02:00 +17°C° 0 mm 2 mps 654 mmHg 51%
    03:00 +17°C° 0 mm 2 mps 654 mmHg 54%
    04:00 +16°C° 0 mm 2 mps 654 mmHg 57%
    05:00 +16°C° 0 mm 1 mps 654 mmHg 60%
    06:00 +18°C° 0 mm 2 mps 655 mmHg 53%
    07:00 +20°C° 0 mm 2 mps 656 mmHg 47%
    08:00 +23°C° 0 mm 2 mps 657 mmHg 40%
    09:00 +25°C° 0 mm 2 mps 657 mmHg 33%
    10:00 +28°C° 0 mm 2 mps 657 mmHg 26%
    11:00 +31°C° 0 mm 1 mps 657 mmHg 19%
    12:00 +32°C° 0 mm 1 mps 657 mmHg 18%
    13:00 +33°C° 0 mm 1 mps 657 mmHg 16%
    14:00 +34°C° 0 mm 1 mps 656 mmHg 14%
    15:00 +34°C° 0 mm 2 mps 656 mmHg 15%
    16:00 +32°C° 0 mm 2 mps 655 mmHg 16%
    17:00 +31°C° 0 mm 2 mps 655 mmHg 17%
    18:00 +29°C° 0 mm 2 mps 655 mmHg 21%
    19:00 +27°C° 0 mm 3 mps 655 mmHg 25%
    20:00 +25°C° 0 mm 3 mps 655 mmHg 29%
    21:00 +24°C° 0 mm 3 mps 655 mmHg 31%
    22:00 +22°C° 0 mm 3 mps 655 mmHg 33%
    23:00 +21°C° 0 mm 3 mps 656 mmHg 35%

    26 October, Friday

    Time Temperature Precipitation Wind Pressure Humidity
    00:00 +20°C° 0 mm 2 mps 655 mmHg 37%
    01:00 +19°C° 0 mm 2 mps 655 mmHg 38%
    02:00 +19°C° 0 mm 2 mps 654 mmHg 40%
    03:00 +18°C° 0 mm 2 mps 654 mmHg 41%
    04:00 +18°C° 0 mm 2 mps 654 mmHg 42%
    05:00 +18°C° 0 mm 2 mps 655 mmHg 43%
    06:00 +20°C° 0 mm 2 mps 655 mmHg 39%
    07:00 +21°C° 0 mm 3 mps 656 mmHg 35%
    08:00 +24°C° 0 mm 3 mps 657 mmHg 31%
    09:00 +26°C° 0 mm 3 mps 657 mmHg 28%
    10:00 +28°C° 0 mm 3 mps 657 mmHg 24%
    11:00 +30°C° 0 mm 3 mps 657 mmHg 20%
    12:00 +31°C° 0 mm 3 mps 657 mmHg 18%
    13:00 +33°C° 0 mm 3 mps 656 mmHg 16%
    14:00 +33°C° 0 mm 3 mps 656 mmHg 14%
    15:00 +33°C° 0 mm 4 mps 656 mmHg 15%
    16:00 +32°C° 0 mm 4 mps 656 mmHg 16%
    17:00 +30°C° 0 mm 4 mps 655 mmHg 17%
    18:00 +28°C° 0 mm 4 mps 656 mmHg 20%
    19:00 +26°C° 0 mm 4 mps 656 mmHg 23%
    20:00 +25°C° 0 mm 4 mps 656 mmHg 26%
    21:00 +23°C° 0 mm 4 mps 656 mmHg 30%
    22:00 +22°C° 0 mm 3 mps 656 mmHg 35%
    23:00 +21°C° 0 mm 3 mps 656 mmHg 39%
    Show more